Todos
Enua Airport (Atiu (Enua Manu)) AIU Condições meteorológicas
|
Atiu (Enua Manu) (AIU / NCAT)
Céu Limpo
Vento Ligeiro |
|
29 °C |
There is no TAF data available at AIU or any nearby airports.
Histórico recente de METAR AIU
| Date | Time (-10) | Flight Rules | Wind Dir. | Speed | Type | Height AGL (ft) | Visibility | Temp (°C) | Temp (°F) | Dew Point (°C) | Dew Point (°F) | Rel. Humid. | Pressure | Density Altitude | Remarks |
|---|---|---|---|---|---|---|---|---|---|---|---|---|---|---|---|
| 03-Mai | 11:00 | n/a | 320° | 4 kt | Missing | 29° | 84° | 25° | 77° | 79% | 1011 mb | 1.796 ft | |||
| 03-Mai | 10:00 | n/a | 320° | 3 kt | Missing | 27° | 80° | 24° | 75° | 84% | 1011 mb | 1.556 ft | |||
| 03-Mai | 09:00 | n/a | 310° | 2 kt | Missing | 26° | 78° | 24° | 75° | 89% | 1010 mb | 1.466 ft | |||
| 03-Mai | 08:00 | n/a | 310° | 2 kt | Missing | 26° | 78° | 24° | 75° | 89% | 1010 mb | 1.466 ft | |||
| 03-Mai | 07:00 | n/a | 300° | 2 kt | Missing | 25° | 77° | 23° | 73° | 89% | 1009 mb | 1.375 ft | |||
| 03-Mai | 06:00 | n/a | 300° | 2 kt | Missing | 25° | 77° | 23° | 73° | 89% | 1009 mb | 1.375 ft | |||
| 03-Mai | 05:00 | n/a | 300° | 2 kt | Missing | 25° | 77° | 23° | 73° | 89% | 1009 mb | 1.375 ft | |||
| 03-Mai | 04:00 | n/a | 310° | 2 kt | Missing | 26° | 78° | 23° | 73° | 84% | 1009 mb | 1.495 ft | |||
| 03-Mai | 03:00 | n/a | 310° | 2 kt | Missing | 25° | 77° | 24° | 75° | 94% | 1009 mb | 1.375 ft | |||
| 03-Mai | 02:00 | n/a | 300° | 2 kt | Missing | 26° | 78° | 24° | 75° | 89% | 1009 mb | 1.495 ft | |||
| 03-Mai | 01:00 | n/a | 290° | 1 kt | Missing | 25° | 77° | 24° | 75° | 94% | 1009 mb | 1.375 ft | |||
| 03-Mai | 00:00 | n/a | 350° | 2 kt | Missing | 26° | 78° | 24° | 75° | 89% | 1009 mb | 1.495 ft | |||
| 02-Mai | 23:00 | n/a | 300° | 1 kt | Missing | 25° | 77° | 23° | 73° | 89% | 1009 mb | 1.375 ft | |||
| 02-Mai | 22:00 | n/a | 340° | 1 kt | Missing | 25° | 77° | 23° | 73° | 89% | 1009 mb | 1.375 ft | |||
| 02-Mai | 21:00 | n/a | 330° | 1 kt | Missing | 26° | 78° | 23° | 73° | 84% | 1010 mb | 1.466 ft | |||
| 02-Mai | 20:00 | n/a | 310° | 2 kt | Missing | 26° | 78° | 23° | 73° | 84% | 1009 mb | 1.495 ft | |||
| 02-Mai | 19:00 | n/a | 300° | 3 kt | Missing | 26° | 78° | 24° | 75° | 89% | 1009 mb | 1.495 ft | |||
| 02-Mai | 18:00 | n/a | 320° | 3 kt | Missing | 26° | 78° | 24° | 75° | 89% | 1009 mb | 1.495 ft | |||
| 02-Mai | 17:00 | n/a | 350° | 6 kt | Missing | 27° | 80° | 24° | 75° | 84% | 1009 mb | 1.615 ft | |||
| 02-Mai | 16:00 | n/a | 360° | 5 kt | Missing | 27° | 80° | 23° | 73° | 79% | 1009 mb | 1.615 ft | |||
| 02-Mai | 15:00 | n/a | 360° | 4 kt | Missing | 27° | 80° | 24° | 75° | 84% | 1009 mb | 1.615 ft | |||
| 02-Mai | 14:00 | n/a | 340° | 4 kt | Missing | 28° | 82° | 25° | 77° | 84% | 1010 mb | 1.706 ft | |||
| 02-Mai | 13:00 | n/a | 20° | 6 kt | Missing | 28° | 82° | 24° | 75° | 79% | 1010 mb | 1.706 ft | |||
| 02-Mai | 12:00 | n/a | 30° | 7 kt | Missing | 28° | 82° | 25° | 77° | 84% | 1011 mb | 1.676 ft |
Entrar
| Seu navegador não suporta. atualize seu navegador |
